HYPERVIEW 1G (RS66S)

Last updated on Sun Aug 09 2026 00:03:16 GMT+0000 (Coordinated Universal Time)

1 61772U 24199AP 26220.62177627 .00543714 13792-3 90229-3 0 9992 2 61772 97.2638 103.7639 0006622 145.7514 214.4194 16.03006472142980
UTC large
Height (km)
Speed (km/s)
/
Latitude / Longitude
Inclination (degrees)
Orbital Period (minutes)
Azimuth
Elevation
Range (km)
Doppler Factor

Next 0 passes for location: London (51.5072 / 0.1276)

No passes found over London.